Weather reports worldwide

Advertisment
Loch Glascarnoch, United Kingdom (3031): temperature & dewpoint: 15.01.2020 22:00:00 - 21.01.2020 22:00:00 (GMT)Loch Glascarnoch, United Kingdom (3031): temperature -20cm & temperature -100cm: 15.01.2020 22:00:00 - 21.01.2020 22:00:00 (GMT)Loch Glascarnoch, United Kingdom (3031): wind speed & gusts: 15.01.2020 22:00:00 - 21.01.2020 22:00:00 (GMT)Loch Glascarnoch, United Kingdom (3031): wind direction: 15.01.2020 22:00:00 - 21.01.2020 22:00:00 (GMT)Loch Glascarnoch, United Kingdom (3031): reduced air pressure: 15.01.2020 22:00:00 - 21.01.2020 22:00:00 (GMT)Loch Glascarnoch, United Kingdom (3031): visibility: 15.01.2020 22:00:00 - 21.01.2020 22:00:00 (GMT)Loch Glascarnoch, United Kingdom (3031): sunshine duration: 15.01.2020 22:00:00 - 21.01.2020 22:00:00 (GMT)Loch Glascarnoch, United Kingdom (3031): precipitation: 15.01.2020 22:00:00 - 21.01.2020 22:00:00 (GMT)
Date & Time tt [°C] td [°C] tt -20cm [°C] tt -100cm [°C] ff [km/h] ff [kn] fx [km/h] fx [kn] dd ppp [hPa] vv [km] sd [min] rr [mm]
21.01.2020 22:00:00 8,5 7,7 - - 15 8 - - WNW 1035,0 5 0 0,2
21.01.2020 21:00:00 8,7 7,8 - - 11 6 - - WNW 1034,9 9 0 0,0
21.01.2020 20:00:00 8,3 7,4 - - 11 6 - - WNW 1035,0 7 0 0,0
21.01.2020 19:00:00 8,2 7,5 - - 15 8 - - W 1035,1 12 0 0,0
21.01.2020 18:00:00 8,1 7,5 - - 13 7 - - W 1034,4 30 0 0,0
21.01.2020 17:00:00 7,8 7,5 - - 11 6 - - W 1034,4 30 0 0,0
21.01.2020 16:00:00 7,3 6,9 - - 9 5 - - NW 1034,8 5 0 0,0
21.01.2020 15:00:00 7,3 6,9 - - 11 6 - - WNW 1035,2 2,2 0 0,2
21.01.2020 14:00:00 8,1 7,5 - - 16 9 - - WNW 1035,5 5 0 0,0
21.01.2020 13:00:00 7,4 7,0 - - 5 3 - - W 1035,9 50 0 0,2
21.01.2020 12:00:00 7,7 7,4 - - 8 4 - - WNW 1036,3 8 0 0,0
21.01.2020 11:00:00 6,5 6,3 - - 2 1 - - NE 1036,3 30 0 0,0
21.01.2020 10:00:00 5,9 5,6 - - 2 1 - - W 1036,4 40 0 0,0
21.01.2020 09:00:00 5,8 5,5 4,0 3,9 4 2 - - SW 1036,2 4,7 0 0,0
21.01.2020 08:00:00 5,8 5,4 - - 8 4 - - NW 1035,7 0,5 0 0,0
21.01.2020 07:00:00 6,0 5,6 - - 9 5 - - WNW 1035,9 1,9 0 0,2
21.01.2020 06:00:00 6,8 6,2 - - 11 6 - - W 1035,4 2,2 0 0,0
21.01.2020 05:00:00 7,7 6,8 - - 15 8 - - NW 1035,5 6 0 0,4
21.01.2020 04:00:00 8,3 7,7 - - 13 7 - - WNW 1034,9 5 0 0,2
21.01.2020 03:00:00 9,1 7,3 - - 22 12 63 34 W 1034,1 50 0 0,0
21.01.2020 02:00:00 8,9 7,4 - - 48 26 59 32 W 1033,0 4,5 0 0,0
21.01.2020 01:00:00 8,9 7,2 - - 29 16 54 29 WNW 1034,0 9 0 0,0
21.01.2020 00:00:00 9,5 6,8 - - 31 17 55 30 W 1033,6 45 - 0,0
20.01.2020 23:00:00 9,4 6,8 - - 35 19 57 31 W 1033,9 22 0 0,0
20.01.2020 22:00:00 8,9 6,6 - - 34 18 55 30 W 1034,5 15 0 0,2
20.01.2020 21:00:00 8,7 6,2 - - 39 21 63 34 W 1033,9 5 0 0,0
20.01.2020 20:00:00 8,4 5,7 - - 31 17 59 32 WSW 1034,1 11 0 0,0
20.01.2020 19:00:00 8,3 5,5 - - 37 20 61 33 WSW 1034,6 17 0 0,0
20.01.2020 18:00:00 8,2 5,1 - - 41 22 57 31 WSW 1034,5 30 0 0,0
20.01.2020 17:00:00 8,1 4,4 - - 26 14 50 27 WSW 1035,0 35 0 0,0
20.01.2020 16:00:00 8,4 5,1 - - 26 14 48 26 WSW 1035,4 30 0 0,0
20.01.2020 15:00:00 8,2 5,6 - - 21 11 - - WSW 1035,9 10 0 0,0
20.01.2020 14:00:00 8,3 5,8 - - 34 18 61 33 WSW 1036,0 28 0 0,0
20.01.2020 13:00:00 8,2 5,5 - - 41 22 59 32 WSW 1036,1 14 0 0,0
20.01.2020 12:00:00 8,1 4,7 - - 22 12 48 26 WSW 1036,6 30 0 0,0
20.01.2020 11:00:00 8,1 4,1 - - 37 20 61 33 WSW 1036,8 30 0 0,0
20.01.2020 10:00:00 7,9 4,4 - - 35 19 59 32 WSW 1036,4 35 0 0,0
20.01.2020 09:00:00 8,0 4,1 3,2 3,7 22 12 48 26 SSW 1036,8 21 0 0,0
20.01.2020 08:00:00 8,4 4,9 - - 13 7 - - SW 1036,9 35 0 0,0
20.01.2020 07:00:00 7,8 5,4 - - 22 12 - - SSW 1036,9 35 0 0,0
20.01.2020 06:00:00 7,8 5,6 - - 16 9 - - SW 1036,9 35 0 0,0
20.01.2020 05:00:00 8,5 6,3 - - 16 9 - - SSW 1036,7 29 0 0,0
20.01.2020 04:00:00 7,7 5,7 - - 22 12 - - SW 1036,9 17 0 0,0
20.01.2020 03:00:00 7,4 5,5 - - 16 9 - - SW 1037,2 29 0 0,0
20.01.2020 02:00:00 7,3 5,2 - - 22 12 48 26 WSW 1037,5 15 0 0,0
20.01.2020 01:00:00 8,2 5,1 - - 13 7 - - WSW 1037,3 30 0 0,0
20.01.2020 00:00:00 7,5 4,2 - - 22 12 68 37 W 1037,7 45 - 0,0
19.01.2020 23:00:00 7,4 3,9 - - 39 21 74 40 W 1037,6 35 0 0,0
19.01.2020 22:00:00 7,5 3,6 - - 34 18 55 30 WNW 1037,5 45 0 0,0
19.01.2020 21:00:00 6,8 3,7 - - 28 15 55 30 W 1037,3 40 0 0,0
19.01.2020 20:00:00 6,9 3,8 - - 26 14 63 34 WNW 1037,8 40 0 0,0
19.01.2020 19:00:00 6,4 3,7 - - 29 16 46 25 WSW 1037,6 30 0 0,0
19.01.2020 18:00:00 6,4 3,2 - - 15 8 48 26 W 1038,0 35 0 0,0
19.01.2020 17:00:00 6,3 2,9 - - 22 12 57 31 W 1038,0 23 0 0,0
19.01.2020 16:00:00 6,1 2,1 - - 35 19 63 34 W 1037,5 21 0 0,0
19.01.2020 15:00:00 5,8 1,4 - - 42 23 65 35 W 1037,3 22 0 0,0
19.01.2020 14:00:00 6,0 0,6 - - 42 23 72 39 W 1036,7 27 0 0,0
19.01.2020 13:00:00 6,0 1,0 - - 21 11 68 37 W 1037,0 50 0 0,0
19.01.2020 12:00:00 6,1 -1,4 - - 29 16 61 33 WSW 1037,1 45 0 0,0
19.01.2020 11:00:00 5,6 -0,5 - - 15 8 - - WSW 1037,5 35 0 0,0
19.01.2020 10:00:00 6,0 0,7 - - 16 9 50 27 SSW 1037,5 30 0 0,0
19.01.2020 09:00:00 4,9 1,6 3,0 3,7 8 4 - - S 1038,1 30 0 0,0
19.01.2020 08:00:00 4,0 1,6 - - 13 7 - - W 1038,3 45 0 0,0
19.01.2020 07:00:00 3,9 0,7 - - 9 5 - - SSW 1037,7 45 0 0,0
19.01.2020 06:00:00 3,8 -0,5 - - 11 6 - - W 1037,4 50 0 0,0
19.01.2020 05:00:00 1,5 -1,1 - - 5 3 - - WNW 1037,4 40 0 0,0
19.01.2020 04:00:00 -0,6 -2,3 - - 2 1 - - S 1037,0 45 0 0,0
19.01.2020 03:00:00 1,6 -0,6 - - 21 11 - - W 1036,7 35 0 0,0
19.01.2020 02:00:00 2,3 -1,2 - - 16 9 - - W 1035,8 40 0 0,0
19.01.2020 01:00:00 2,2 -1,2 - - 34 18 - - W 1034,7 50 0 0,0
19.01.2020 00:00:00 2,2 -1,1 - - 24 13 68 37 WNW 1035,0 40 - 0,0
18.01.2020 23:00:00 1,7 -1,0 - - 16 9 - - W 1034,4 35 0 0,0
18.01.2020 22:00:00 1,2 -1,3 - - 4 2 - - W 1033,8 30 0 0,0
18.01.2020 21:00:00 1,8 -0,7 - - 15 8 - - W 1032,7 35 0 0,0
18.01.2020 20:00:00 1,8 -1,0 - - 22 12 - - W 1031,8 35 0 0,0
18.01.2020 19:00:00 2,8 0,1 - - 26 14 - - WNW 1031,2 19 0 0,0
18.01.2020 18:00:00 2,4 -0,3 - - 22 12 - - WNW 1030,3 25 0 0,0
18.01.2020 17:00:00 3,1 0,2 - - 22 12 - - WNW 1029,4 26 0 0,0
18.01.2020 16:00:00 2,6 0,3 - - 18 10 - - W 1027,8 19 0 0,0
18.01.2020 15:00:00 4,0 0,8 - - 16 9 - - WNW 1026,4 19 0 0,0
18.01.2020 14:00:00 4,3 0,8 - - 26 14 - - WNW 1025,4 16 12 0,0
18.01.2020 13:00:00 3,6 1,3 - - 22 12 - - WNW 1024,2 22 18 1,0
18.01.2020 12:00:00 1,9 0,2 - - 26 14 - - WNW 1023,5 6 24 0,0
18.01.2020 11:00:00 3,4 0,2 - - 28 15 50 27 WNW 1022,1 30 30 0,0
18.01.2020 10:00:00 2,0 0,1 - - 26 14 - - WNW 1021,1 30 0 0,0
18.01.2020 09:00:00 1,8 -0,1 3,4 3,7 24 13 54 29 WNW 1019,6 30 0 0,2
18.01.2020 08:00:00 1,5 0,1 - - 26 14 50 27 WNW 1018,4 35 0 0,0
18.01.2020 07:00:00 1,5 -0,3 - - 21 11 59 32 WNW 1017,6 40 0 0,0
18.01.2020 06:00:00 1,5 -0,8 - - 26 14 65 35 NW 1016,5 40 0 0,2
18.01.2020 05:00:00 1,8 -0,4 - - 21 11 61 33 WNW 1015,4 35 0 0,0
18.01.2020 04:00:00 2,6 -0,5 - - 29 16 - - W 1014,3 35 0 0,0
18.01.2020 03:00:00 1,2 -0,4 - - 22 12 50 27 WNW 1014,1 27 0 0,2
18.01.2020 02:00:00 2,2 -0,3 - - 34 18 54 29 WNW 1012,7 21 0 0,4
18.01.2020 01:00:00 0,7 -0,1 - - 28 15 76 41 WNW 1011,8 30 0 0,6
18.01.2020 00:00:00 3,0 0,0 - - 50 27 70 38 W 1010,6 17 - 0,0
17.01.2020 23:00:00 2,8 -0,3 - - 35 19 57 31 WNW 1009,4 14 0 0,0
17.01.2020 22:00:00 1,5 0,2 - - 26 14 - - WNW 1008,7 10 0 0,2
17.01.2020 21:00:00 1,3 -0,2 - - 22 12 48 26 WNW 1007,9 20 0 1,6
17.01.2020 20:00:00 3,1 -0,6 - - 37 20 50 27 W 1006,6 30 0 0,0
17.01.2020 19:00:00 4,0 -0,4 - - 35 19 61 33 W 1005,5 16 0 0,0
17.01.2020 18:00:00 3,8 0,3 - - 39 21 59 32 W 1004,9 16 0 0,0
17.01.2020 17:00:00 3,5 0,7 - - 37 20 61 33 W 1003,8 23 0 0,6
17.01.2020 16:00:00 4,8 0,0 - - 42 23 59 32 W 1002,3 23 0 0,0
17.01.2020 15:00:00 4,5 1,0 - - 28 15 59 32 W 1001,3 25 0 0,0
17.01.2020 14:00:00 4,5 0,6 - - 37 20 55 30 W 1000,4 23 6 0,8
17.01.2020 13:00:00 5,8 -0,3 - - 42 23 63 34 W 999,4 22 42 0,0
17.01.2020 12:00:00 5,5 0,5 - - 34 18 57 31 W 999,0 18 12 0,0
17.01.2020 11:00:00 4,1 0,8 - - 39 21 61 33 W 998,4 10 0 0,4
17.01.2020 10:00:00 3,2 1,0 - - 31 17 50 27 WSW 997,7 50 0 1,6
17.01.2020 09:00:00 3,2 1,4 3,4 3,7 34 18 76 41 WSW 997,1 3,3 0 1,8
17.01.2020 08:00:00 3,3 1,3 - - 44 24 78 42 SW 996,1 3,0 0 1,0
17.01.2020 07:00:00 3,6 0,5 - - 42 23 96 52 SW 995,9 3,0 0 0,4
17.01.2020 06:00:00 4,5 -0,8 - - 39 21 74 40 SW 995,6 27 0 0,2
17.01.2020 05:00:00 4,5 -0,5 - - 37 20 74 40 SW 995,4 20 0 0,4
17.01.2020 04:00:00 4,2 0,5 - - 42 23 70 38 SW 995,2 4,9 0 0,0
17.01.2020 03:00:00 4,8 0,3 - - 34 18 72 39 SW 994,5 30 0 0,8
17.01.2020 02:00:00 4,9 0,5 - - 34 18 67 36 SW 994,3 50 0 0,0
17.01.2020 01:00:00 5,9 0,3 - - 34 18 65 35 SW 993,6 25 0 0,0
17.01.2020 00:00:00 6,5 0,7 - - 39 21 70 38 SW 992,6 30 - 0,0
16.01.2020 23:00:00 6,6 0,9 - - 34 18 59 32 SW 991,6 45 0 0,0
16.01.2020 22:00:00 6,2 -0,2 - - 29 16 59 32 SW 990,4 50 0 0,0
16.01.2020 21:00:00 5,9 1,6 - - 34 18 67 36 SW 989,7 35 0 0,0
16.01.2020 20:00:00 6,4 3,6 - - 31 17 65 35 SW 989,0 23 0 0,2
16.01.2020 19:00:00 4,9 2,6 - - 29 16 48 26 SE 988,4 50 0 0,2
16.01.2020 18:00:00 4,7 2,3 - - 35 19 54 29 SE 988,8 50 0 0,4
16.01.2020 17:00:00 5,0 2,8 - - 34 18 52 28 SE 990,6 18 0 0,8
16.01.2020 16:00:00 5,8 3,0 - - 37 20 50 27 SE 991,4 15 0 0,0
16.01.2020 15:00:00 6,3 2,4 - - 34 18 54 29 SE 992,4 50 0 0,0
16.01.2020 14:00:00 6,5 2,9 - - 37 20 54 29 SE 994,2 35 0 0,0
16.01.2020 13:00:00 5,5 3,7 - - 16 9 - - ESE 997,4 50 0 0,0
16.01.2020 12:00:00 4,9 3,4 - - 28 15 - - ESE 998,8 50 0 0,0
16.01.2020 11:00:00 4,2 2,9 - - 22 12 - - ESE 1000,0 40 0 0,2
16.01.2020 10:00:00 3,7 2,4 - - 18 10 - - ESE 1000,7 35 0 0,0
16.01.2020 09:00:00 3,4 1,9 3,2 3,7 15 8 - - ESE 1001,3 35 0 0,6
16.01.2020 08:00:00 4,2 0,8 - - 18 10 - - SE 1001,4 50 0 0,0
16.01.2020 07:00:00 3,1 0,2 - - 5 3 - - ENE 1002,1 40 0 0,0
16.01.2020 06:00:00 4,6 -0,1 - - 8 4 - - ENE 1002,2 45 0 0,0
16.01.2020 05:00:00 4,7 0,0 - - 9 5 59 32 S 1002,9 40 0 0,0
16.01.2020 04:00:00 4,4 1,2 - - 28 15 55 30 SW 1002,6 45 0 0,0
16.01.2020 03:00:00 4,5 0,7 - - 34 18 68 37 WSW 1001,7 22 0 0,2
16.01.2020 02:00:00 4,2 0,7 - - 29 16 59 32 WSW 1000,6 24 0 0,4
16.01.2020 01:00:00 3,6 1,0 - - 34 18 55 30 W 1000,2 8 0 1,6
16.01.2020 00:00:00 4,8 0,8 - - 29 16 61 33 W 998,5 16 - 0,4
15.01.2020 23:00:00 5,0 1,1 - - 31 17 80 43 WSW 997,4 14 0 0,2
15.01.2020 22:00:00 4,6 1,9 - - 44 24 65 35 WSW 995,7 5 0 3,2

tt = temperature
td = dewpoint
tt -20cm = temperature -20cm
tt -100cm = temperature -100cm
ff = wind speed
fx = gusts
dd = wind direction
ppp = reduced air pressure
vv = visibility
sd = sunshine duration
rr = precipitation

Next stations